Location: Edinburgh
(55.9500°N, 3.1600°W)
Time: 02:14:51
(UTC+01:00)

N. Korean satellite - Pass Details

Date: 16 October 2017
Orbit: 459 x 517 km, 97.2° (Epoch: 19 October)

Event Time Altitude Azimuth Distance (km) Brightness Sun altitude
Rises 20:31:30 0° 220° (SW) 2,527 10.5 -20.6°
Reaches altitude 10° 20:35:05 10° 259° (W) 1,642 10.1 -21.0°
Maximum altitude 20:36:01 11° 274° (W) 1,590 10.3 -21.2°
Drops below altitude 10° 20:36:56 10° 290° (WNW) 1,639 10.4 -21.3°
Sets 20:40:31 0° 329° (NNW) 2,512 10.9 -21.8°
